www.pogodaiklimat.ru

Погода и климат >> Архив погоды >> Австралия >> Birdsville Airport


ПОГОДА в Birdsville Airport

  • Прогноз погоды в Birdsville Airport
  • Монитор погоды в Birdsville Airport
  • Климат города

АРХИВ ПОГОДЫ в Birdsville Airport

Время (UTC), дата Ветер
(напр.,м/с)
 
Видим.   Явления Облачность Т
(С)
Тd
(С)
f
(%)
Тe
(С)
Тes
(С)
Комфортность P
(гПа)
Po
(гПа)
Тmin
(С)
Tmax
(С)
R
(мм)
R24
(мм)
S
(см)
17 16.10 В 4 н/о н/о +23.9 +11.9 47 +26 +26 жарко 1012.0 1006.6
18 16.10 В 5 н/о н/о +23.4 +12.1 49 +26 +26 жарко 1011.8 1006.4
20 16.10 ЮВ 5 н/о н/о +22.0 +12.8 56 +25 +25 комфорт 1012.9 1007.5
21 16.10 В 5 н/о н/о +22.5 +13.6 57 +26 +26 жарко 1013.5 1008.1
23 16.10 В 7 н/о н/о +25.3 +14.4 51 +28 +28 жарко 1014.1 1008.7
00 17.10 В 6 н/о н/о +27.1 +14.8 47 +30 +30 душно 1014.2 1008.8
02 17.10 В 5 н/о н/о +30.1 +13.8 37 +32 +32 жарко 1012.5 1007.1 +21.9
03 17.10 В 4 н/о н/о +30.7 +12.6 33 +32 +32 жарко 1011.6 1006.2
05 17.10 В 4 н/о н/о +32.0 +12.3 30 +32 +32 жарко 1009.6 1004.2
06 17.10 В 3 н/о н/о +32.5 +11.6 28 +33 +33 жарко 1009.1 1003.7
08 17.10 В 5 н/о н/о +32.4 +11.6 28 +32 +32 жарко 1009.1 1003.7
09 17.10 ЮВ 5 н/о н/о +31.3 +11.7 30 +32 +32 жарко 1009.8 1004.4
11 17.10 ЮВ 3 н/о н/о +28.6 +11.2 34 +29 +29 жарко 1011.3 1005.9
12 17.10 ЮВ 4 н/о н/о +28.5 +11.6 35 +29 +29 жарко 1012.0 1006.6
14 17.10 В 7 н/о н/о +28.5 +12.8 38 +30 +30 жарко 1012.4 1007.0 +33.4
15 17.10 В 6 н/о н/о +27.6 +13.5 42 +29 +29 жарко 1012.3 1006.9
17 17.10 В 6 н/о н/о +25.7 +14.2 49 +28 +28 жарко 1011.5 1006.1
18 17.10 В 5 н/о н/о +25.0 +14.8 53 +28 +28 жарко 1011.8 1006.4
20 17.10 В 5 н/о н/о +23.6 +14.6 57 +26 +26 жарко 1012.8 1007.4
21 17.10 В 5 н/о н/о +24.0 +14.7 56 +27 +27 жарко 1013.6 1008.2
23 17.10 В 7 н/о н/о +27.3 +15.7 49 +30 +30 душно 1014.3 1008.9
00 18.10 СВ 6 н/о н/о +29.4 +15.5 43 +32 +32 душно 1014.0 1008.6
02 18.10 СВ 5 н/о н/о +31.7 +14.4 35 +33 +33 жарко 1012.6 1007.2 +23.5
03 18.10 СВ 2 н/о н/о +32.6 +13.8 32 +34 +34 очень
жарко
1011.7 1006.3
05 18.10 В 3 н/о н/о +34.0 +12.9 28 +34 +34 очень
жарко
1009.9 1004.5
06 18.10 В 2 н/о н/о +35.0 +12.6 26 +35 +35 очень
жарко
1009.5 1004.1
08 18.10 В 3 н/о н/о +34.2 +12.0 26 +34 +34 очень
жарко
1010.0 1004.6
09 18.10 В 4 н/о н/о +33.4 +12.4 28 +34 +34 очень
жарко
1010.5 1005.1
11 18.10 В 2 н/о н/о +30.5 +11.5 31 +31 +31 жарко 1012.2 1006.8
12 18.10 В 2 н/о н/о +29.4 +11.0 32 +30 +30 жарко 1012.8 1007.4
14 18.10 В 3 н/о н/о +27.8 +11.8 37 +29 +29 жарко 1012.7 1007.3 +35.8
15 18.10 В 3 н/о н/о +26.9 +11.8 39 +28 +28 жарко 1012.2 1006.8
17 18.10 В 2 н/о н/о +25.0 +11.2 42 +26 +26 жарко 1011.5 1006.1
18 18.10 В 2 н/о н/о +24.4 +11.4 44 +26 +26 жарко 1011.8 1006.4
20 18.10 В 3 н/о н/о +25.8 +14.3 49 +28 +28 жарко 1013.2 1007.8
21 18.10 В 4 н/о н/о +27.5 +15.5 48 +30 +30 жарко 1014.2 1008.8
23 18.10 СВ 8 н/о н/о +31.3 +17.9 45 +36 +36 очень
душно
1015.1 1009.7
00 19.10 СВ 6 н/о н/о +32.6 +17.6 41 +37 +37 очень
душно
1015.1 1009.7
02 19.10 С 4 н/о н/о +34.0 +16.4 35 +37 +37 очень
душно
1014.5 1009.1 +24.3
03 19.10 Ю 2 н/о н/о +34.6 +15.5 32 +37 +37 очень
душно
1013.8 1008.4
05 19.10 Ю 5 н/о н/о +36.9 +15.4 28 +38 +38 очень
душно
1012.4 1007.0
06 19.10 Ю 3 н/о н/о +35.2 +16.0 32 +37 +37 очень
душно
1011.9 1006.5
08 19.10 ЮВ 10 н/о н/о +33.5 +16.8 37 +37 +37 очень
душно
1012.4 1007.0
09 19.10 В 6 н/о н/о +32.1 +17.9 43 +36 +36 очень
душно
1013.3 1007.9
11 19.10 В 4 н/о н/о +32.2 +17.7 42 +36 +36 очень
душно
1014.5 1009.1
12 19.10 В 4 н/о н/о +32.3 +17.4 41 +36 +36 очень
душно
1014.9 1009.5
14 19.10 ЮЗ 6 н/о н/о +31.2 +18.2 46 +36 +36 очень
душно
1015.5 1010.1 +37.8
15 19.10 Ю 8 н/о н/о +27.6 +19.1 60 +33 +33 очень
душно
1016.1 1010.7
17 19.10 ЮВ 10 н/о н/о +25.8 +20.1 71 +32 +32 очень
душно
1015.9 1010.5
18 19.10 ЮВ 8 н/о н/о +24.4 +21.1 82 +31 +31 очень
душно
1016.2 1010.8
20 19.10 ЮВ 8 н/о {туман} н/о +23.7 +20.8 84 +30 +30 очень
душно
1017.8 1012.4
21 19.10 ЮВ 8 н/о н/о +23.8 +20.5 82 +30 +30 очень
душно
1019.1 1013.6
23 19.10 Ю 8 н/о {туман} н/о +25.0 +20.3 75 +31 +31 очень
душно
1020.4 1014.9
00 20.10 ЮВ 9 н/о н/о +25.5 +19.9 71 +31 +31 очень
душно
1020.5 1015.0
02 20.10 ЮВ 10 н/о н/о +29.6 +17.8 49 +34 +34 очень
душно
1019.8 1014.3 +23.6
03 20.10 ЮВ 8 н/о н/о +30.5 +18.2 48 +35 +35 очень
душно
1019.1 1013.6
05 20.10 ЮВ 9 н/о н/о +31.8 +17.7 43 +36 +36 очень
душно
1017.7 1012.3
06 20.10 Ю 8 н/о н/о +31.7 +16.0 39 +35 +35 очень
душно
1017.3 1011.9
08 20.10 ЮВ 8 н/о н/о +30.8 +14.0 36 +32 +32 жарко 1017.2 1011.8
09 20.10 Ю 7 н/о н/о +29.7 +13.0 36 +31 +31 жарко 1017.9 1012.5
11 20.10 Ю 8 н/о н/о +27.4 +9.3 32 +28 +28 жарко 1019.5 1014.0
12 20.10 Ю 8 н/о н/о +26.5 +9.4 34 +27 +27 жарко 1020.0 1014.5
14 20.10 Ю 8 н/о н/о +24.1 +6.8 33 +24 +24 комфорт 1020.4 1014.9 +32.5
15 20.10 Ю 7 н/о н/о +22.9 +2.9 27 +23 +23 комфорт 1020.1 1014.6
17 20.10 Ю 6 н/о н/о +20.8 +0.1 25 +21 +21 комфорт 1019.6 1014.1
18 20.10 Ю 6 н/о н/о +19.7 +0.2 27 +19 +19 1019.7 1014.2
20 20.10 Ю 4 н/о н/о +17.2 +0.8 33 +17 +17 1020.4 1014.9
21 20.10 Ю 6 н/о н/о +18.0 +1.5 33 +18 +18 1021.0 1015.5
23 20.10 ЮВ 9 н/о н/о +22.8 +3.9 29 +23 +23 комфорт 1021.6 1016.1
00 21.10 ЮВ 7 н/о н/о +24.9 +3.5 25 +24 +24 комфорт 1021.6 1016.1
02 21.10 Ю 6 н/о н/о +27.5 +1.8 19 +26 +26 жарко 1020.2 1014.7 +17.2
03 21.10 Ю 7 н/о н/о +28.8 +0.5 16 +26 +26 жарко 1019.4 1013.9
05 21.10 Ю 7 н/о н/о +29.2 -3.1 12 +26 +26 жарко 1017.1 1011.7
06 21.10 Ю 7 н/о н/о +30.3 -3.4 11 +27 +27 жарко 1016.4 1011.0
08 21.10 Ю 8 н/о н/о +29.1 -3.2 12 +26 +26 жарко 1016.3 1010.9
09 21.10 Ю 6 н/о н/о +27.1 -3.7 13 +24 +24 комфорт 1017.0 1011.6
11 21.10 Ю 6 н/о н/о +24.1 -2.4 17 +22 +22 комфорт 1018.2 1012.8
12 21.10 Ю 6 н/о н/о +23.2 -1.7 19 +22 +22 комфорт 1018.2 1012.8
14 21.10 Ю 6 н/о н/о +21.7 -0.3 23 +21 +21 комфорт 1017.8 1012.4 +30.6
15 21.10 Ю 5 н/о н/о +19.4 -0.6 26 +19 +19 1017.4 1012.0
17 21.10 Ю 5 н/о н/о +18.1 -0.2 29 +18 +18 1016.4 1011.0
18 21.10 Ю 4 н/о н/о +16.6 -0.1 32 +16 +16 1016.2 1010.8
20 21.10 Ю 3 н/о н/о +13.9 -2.1 33 +13 +13 1017.0 1011.6
21 21.10 Ю 4 н/о н/о +16.4 -0.8 31 +16 +16 1017.4 1012.0
23 21.10 ЮВ 6 н/о н/о +22.9 +0.1 22 +22 +22 комфорт 1018.1 1012.7
00 22.10 ЮВ 6 н/о н/о +25.4 +0.8 20 +24 +24 комфорт 1018.0 1012.6
02 22.10 Ю 6 н/о н/о +28.3 -1.7 14 +26 +26 жарко 1017.1 1011.7 +13.8
03 22.10 Ю 8 н/о н/о +29.3 -1.9 13 +26 +26 жарко 1016.4 1011.0
05 22.10 ЮЗ 6 н/о н/о +29.7 -3.9 11 +26 +26 жарко 1014.6 1009.2
06 22.10 Ю 7 н/о н/о +30.1 -4.8 10 +27 +27 жарко 1014.0 1008.6
08 22.10 Ю 8 н/о н/о +28.8 -3.4 12 +26 +26 жарко 1014.1 1008.7
09 22.10 Ю 7 н/о н/о +27.1 -2.7 14 +25 +25 комфорт 1015.0 1009.6
11 22.10 Ю 5 н/о н/о +23.8 -1.9 18 +22 +22 комфорт 1016.0 1010.6
12 22.10 Ю 4 н/о н/о +22.4 -1.6 20 +21 +21 комфорт 1016.5 1011.1
14 22.10 Ю 3 н/о н/о +19.2 -1.3 25 +20 +20 1016.6 1011.2 +31.6
15 22.10 Ю 3 н/о н/о +18.3 -1.0 27 +18 +18 1016.4 1011.0
17 22.10 ЮВ 3 н/о н/о +16.9 -0.8 30 +17 +17 1015.4 1010.0
18 22.10 ЮВ 3 н/о н/о +17.1 -1.1 29 +17 +17 1015.2 1009.8
20 22.10 Ю 3 н/о н/о +15.8 -0.8 32 +16 +16 1016.1 1010.7
21 22.10 Ю 3 н/о н/о +16.7 -0.5 31 +17 +17 1016.6 1011.2
23 22.10 В 6 н/о н/о +25.0 +0.5 20 +24 +24 комфорт 1017.4 1012.0
00 23.10 В 4 н/о н/о +25.8 -0.3 18 +24 +24 комфорт 1017.6 1012.2
02 23.10 ЮВ 5 н/о н/о +28.1 -0.1 16 +26 +26 жарко 1016.0 1010.6 +15.3
03 23.10 Ю 5 н/о н/о +29.2 -1.0 14 +26 +26 жарко 1015.1 1009.7
05 23.10 Ю 5 н/о н/о +30.5 -2.1 12 +27 +27 жарко 1013.5 1008.1
06 23.10 Ю 4 н/о н/о +30.2 -3.5 11 +27 +27 жарко 1013.0 1007.6
08 23.10 ЮВ 3 н/о н/о +29.9 -3.7 11 +27 +27 жарко 1013.3 1007.9
09 23.10 Ю 3 н/о н/о +28.8 -2.3 13 +26 +26 жарко 1013.9 1008.5
11 23.10 Ю 3 н/о н/о +24.7 -2.8 16 +23 +23 комфорт 1014.9 1009.5
12 23.10 ЮВ 3 н/о н/о +22.2 -3.2 18 +21 +21 комфорт 1015.3 1009.9
14 23.10 ЮВ 2 н/о н/о +20.5 -3.2 20 +21 +21 комфорт 1015.2 1009.8 +31.4
15 23.10 ЮВ 2 н/о н/о +19.8 -1.9 23 +21 +21 комфорт 1014.8 1009.4

 

Местоположение метеостанции Birdsville Airport (Квинсленд, Австралия): широта -25.90 долгота 139.35 высота над уровнем моря 47 м.

В архиве по умолчанию представлена погода в Birdsville Airport за последнюю неделю. Архивные данные за месяц целиком и за предыдущие месяцы, начиная с января 2011 года, Вы можете получить, выбрав интересующий диапазон дат из раскрывающегося списка и нажав кнопку "Ввод!".

Внимание! Время в таблицах - всемирное. Для получения местного времени необходимо прибавить поправку, которая в Birdsville Airport равна 10 ч.

Смотрите также архив погоды в соседних городах и на ближайших метеорологических станциях:

Погода в Moomba Airport (Южная Австралия, Австралия) (259 км)
Погода в Ballera Gas Field (Квинсленд, Австралия) (298 км)
Погода в Oodnadatta Airport (Южная Австралия, Австралия) (429 км)
Погода в Marree Aero (Южная Австралия, Австралия) (437 км)
Погода в Phosphate Hill Airport (Квинсленд, Австралия) (460 км)
Погода в Jervois (Северная территория, Австралия) (461 км)
Погода в Tibooburra Airport (Новый Южный Уэльс, Австралия) (476 км)
Погода в Trepell Airport (Квинсленд, Австралия) (479 км)
Погода в Thargomindah Airport (Квинсленд, Австралия) (499 км)
Погода в Leigh Creek Airport (Южная Австралия, Австралия) (531 км)

Пояснения к столбцам:

Ветер - указаны скорость ветра в м/с - средняя за 10 мин, порывы в срок и между сроками (в фигурных скобках) и направление, откуда дует ветер: С - северный, СВ - северо-восточный, В - восточный, ЮВ - юго-восточный, Ю - южный, ЮЗ - юго-западный, З - западный, СЗ - северо-западный.
Видимость - горизонтальная дальность видимости в метрах или километрах. При видимости от 1 до 10 км при отсутствии осадков обычно наблюдается дымка, при ухудшении видимости до 1 км и менее - туман. В сухую погоду видимость может ухудшаться дымом, пылью или мглою.
Явления - указаны атмосферные явления, наблюдавшиеся в срок или в последний час перед сроком; фигурными скобками обозначены явления, наблюдавшиеся между сроками (за 1-3 часа до срока); квадратными скобками обозначены град или гололедные отложения с указанием их диаметра в мм.
Облачность - указаны через наклонную черту общая и нижняя облачность в баллах и высота нижней границы облаков в метрах; квадратными скобками обозначены формы облаков: Ci - перистые, Cs - перисто-слоистые, Cc - перисто-кучевые, Ac - высококучевые, As - высокослоистые, Sc - слоисто-кучевые, Ns - слоисто-дождевые, Cu - кучевые, Cb - кучево-дождевые. Подробнее классификацию облаков см. в Атласе облаков (PDF).
T - Температура воздуха - температура, измеренная на высоте 2 м над землей.
Td - Температура точки росы - температура, при понижении до которой содержащийся в воздухе водяной пар достигнет насыщения.
f - Относительная влажность воздуха - влажноcть воздуха, измеренная на высоте 2 м над землей.
Te - Эффективная температура - температура, которую ощущает одетый по сезону человек в тени. Характеристика душности погоды. При расчете учитывается влияние влажности воздуха и скорости ветра на теплоощущения человека.
Tes - Эффективная температура на солнце - температура, которую ощущает человек, с поправкой на солнечный нагрев. Характеристика знойности погоды. Зависит от высоты солнца над горизонтом, облачности и скорости ветра. Ночью, в пасмурную погоду, а также при ветре 12 м/с и более поправка равна нулю.
P - Атмосферное давление - приведенное к уровню моря атмосферное давление.
Po - Атмосферное давление - измеренное на уровне метеостанции атмосферное давление.
Tmin - Минимальная температура - минимум температуры воздуха на высоте 2 м над землей.
Tmax - Максимальная температура - максимум температуры воздуха на высоте 2 м над землей.
R - Количество осадков - Количество выпавших осадков за период времени, мм. При наведении курсора мыши на число - период времени, за который выпало указанное количество осадков.
R24 - Количество осадков - Количество выпавших осадков за 24 часа, мм.
S - Снежный покров - Высота снежного покрова, см. При наведении курсора мыши на число - состояние снежного покрова и степень покрытия местности в баллах.